Location: Albany
(35.0000°S, 118.0000°E)
Time: 20:23:07
(UTC-04:00)

ADEOS Rocket - Visible Passes

Search period start: 01 July 2016 00:00
Search period end: 11 July 2016 00:00
Orbit: 858 x 1308 km, 98.7° (Epoch: 30 June)

Date Brightness Start Highest point End Pass type
(mag) Time Alt. Az. Time Alt. Az. Time Alt. Az.
01 Jul 5.1 05:51:50 10° S 05:58:34 33° WSW 06:04:55 10° NW visible
01 Jul 5.3 16:00:45 10° NNE 16:01:44 15° NNE 16:01:44 15° NNE visible
02 Jul 6.0 06:51:05 10° SSW 06:54:07 13° SW 06:57:04 10° W visible
02 Jul 5.2 16:58:24 10° NNW 16:59:07 13° NNW 16:59:07 13° NNW visible
03 Jul 5.3 05:59:52 10° S 06:06:12 29° WSW 06:12:11 10° WNW visible
03 Jul 5.2 16:08:25 10° N 16:09:32 16° N 16:09:32 16° N visible
04 Jul 6.1 07:00:19 10° SW 07:01:38 11° SW 07:02:57 10° WSW visible
04 Jul 5.8 15:19:57 10° NE 15:19:58 10° NE 15:19:58 10° NE visible
04 Jul 5.2 17:06:25 10° NNW 17:06:56 12° NNW 17:06:56 12° NNW visible
05 Jul 5.5 06:07:55 10° SSW 06:13:48 25° WSW 06:19:23 10° WNW visible
05 Jul 5.2 16:16:07 10° N 16:17:22 17° N 16:17:22 17° N visible
06 Jul 5.7 15:27:25 10° NNE 15:27:47 12° NE 15:27:47 12° NE visible
06 Jul 5.3 17:14:31 10° NW 17:14:45 11° NW 17:14:45 11° NW visible
07 Jul 5.6 06:16:03 10° SSW 06:21:24 21° WSW 06:26:29 10° WNW visible
07 Jul 5.1 16:23:53 10° N 16:25:10 17° N 16:25:10 17° N visible
08 Jul 4.5 05:26:04 10° S 05:33:14 46° WSW 05:39:46 10° NW visible
08 Jul 5.6 15:34:56 10° NNE 15:35:37 13° NNE 15:35:37 13° NNE visible
09 Jul 5.8 06:24:16 10° SSW 06:28:59 18° WSW 06:33:28 10° W visible
09 Jul 5.1 16:31:42 10° N 16:33:00 16° NNW 16:33:00 16° NNW visible
10 Jul 4.7 05:34:00 10° S 05:40:52 40° WSW 05:47:09 10° NW visible
10 Jul 5.5 15:42:30 10° NNE 15:43:26 15° NNE 15:43:26 15° NNE visible
